GFSNE_250_spd_150.txt.gz
Wind_Speed
96 75 70 61 58 63 67 68 68 56 53 57 53 43 41 38 39 36 39 38 37 41 41 41 40 37 32 27 29 30 32 33 33 35 32 35 42 46
99 95 75 77 73 71 71 65 71 56 58 62 55 41 33 36 37 36 38 39 41 39 40 39 34 35 37 32 32 34 38 38 38 40 46 42 46 53
110 108 104 88 75 69 65 70 65 57 61 62 56 54 41 38 38 35 43 38 39 38 41 42 42 41 39 40 36 36 41 42 39 42 41 44 48 52
119 112 106 106 80 71 73 75 70 62 61 63 64 60 51 47 43 41 43 44 40 40 42 38 29 29 31 34 35 43 43 43 46 50 55 54 53 55
119 116 108 103 91 85 83 75 70 64 63 63 71 69 55 52 53 51 45 49 43 45 42 34 32 31 32 35 37 40 47 53 55 62 60 56 56 63
119 119 111 108 96 92 93 78 72 68 66 67 70 74 64 62 60 55 53 52 48 46 44 45 40 40 38 37 45 51 53 52 54 60 55 59 63 64
124 122 113 100 99 97 93 84 71 73 73 69 74 73 68 66 65 62 62 59 54 49 47 51 53 51 51 47 54 57 56 57 63 68 62 56 67 68
118 126 117 106 108 104 93 77 78 80 75 77 74 70 68 70 63 67 68 69 56 58 56 53 56 55 61 60 65 63 62 61 64 65 67 68 71 75
118 126 116 113 115 110 95 78 69 75 74 77 74 74 74 74 69 73 72 60 58 59 58 57 62 61 61 66 63 65 64 66 66 65 70 76 79 75
112 114 112 115 114 111 99 92 86 78 77 74 71 73 73 70 68 74 72 65 60 63 63 62 63 64 67 66 67 67 63 66 67 70 83 80 80 80
106 110 111 109 111 109 105 97 96 90 81 77 80 77 77 75 69 74 73 72 65 64 68 67 70 77 76 72 68 62 67 70 72 77 82 83 80 80
101 109 115 113 115 101 101 104 93 86 85 86 83 82 82 79 76 74 77 79 73 72 68 72 69 74 73 73 72 69 74 75 78 80 84 88 86 83
100 112 114 112 112 110 104 96 87 85 88 89 90 87 82 75 79 85 86 88 82 81 81 78 78 79 78 77 80 86 88 74 80 84 89 89 86 81
102 110 113 116 116 110 105 99 92 94 94 97 98 91 86 92 93 89 93 93 90 86 82 74 83 85 87 90 87 83 86 86 83 91 85 89 91 86
103 111 116 117 116 104 101 99 97 100 101 104 101 100 97 100 97 97 99 99 96 94 96 93 91 94 98 95 91 90 85 87 90 93 97 92 92 85
102 110 115 122 119 111 111 108 106 107 111 113 114 107 100 103 107 108 111 106 106 106 103 105 108 102 98 95 87 87 92 93 98 101 101 95 99 101
100 109 119 125 122 121 118 117 118 120 116 116 117 113 114 110 112 115 116 116 113 109 108 111 110 108 105 100 97 95 99 104 105 105 106 105 109 104
97 105 117 119 124 127 129 128 126 125 126 120 120 119 117 120 119 121 120 121 118 118 115 117 116 114 111 108 108 109 111 110 111 114 112 113 108 108
103 106 112 117 125 126 134 131 130 130 131 129 127 126 128 129 129 127 129 125 125 124 122 122 122 124 125 123 124 124 123 123 124 121 118 114 110 108
107 110 115 120 125 131 135 135 135 135 134 135 131 134 131 134 131 133 134 134 136 132 133 135 134 135 135 136 134 131 133 127 127 129 124 120 126 116
114 116 122 129 132 136 136 139 139 140 140 141 144 143 140 138 139 142 142 140 141 139 140 139 135 139 138 136 139 139 137 136 133 132 131 125 121 122
122 126 129 132 130 130 133 140 144 141 141 144 146 147 149 150 153 154 155 153 149 143 144 146 142 143 145 146 142 145 142 139 143 135 125 125 129 131
130 132 136 137 138 142 146 148 147 148 151 152 153 157 156 153 150 148 150 153 151 153 148 148 152 148 149 151 151 150 145 144 142 140 134 131 133 131

GFSNE_250_spd_153.txt.gz
Wind_Speed
101 122 114 104 92 84 75 76 73 75 74 60 58 57 50 47 47 49 41 40 34 34 32 29 32 34 34 38 34 32 31 29 32 30 32 32 29 29
95 107 122 111 101 87 86 85 88 79 78 70 67 64 57 49 50 48 46 45 37 29 24 29 25 27 33 34 32 33 34 31 32 32 32 33 35 41
91 101 113 121 110 97 96 87 91 87 82 72 71 69 62 52 50 50 49 43 34 28 32 28 28 28 29 32 36 39 38 33 32 33 34 35 36 32
92 98 106 119 119 106 96 90 87 84 79 78 73 69 59 53 54 48 50 47 38 29 32 33 35 34 31 37 35 34 32 28 31 32 33 37 36 40
95 99 106 117 121 116 102 90 89 88 80 80 76 69 60 56 54 51 52 54 52 46 41 39 39 36 33 33 35 36 33 31 31 31 35 37 42 44
93 101 107 120 123 117 109 99 93 92 88 79 78 72 62 60 59 55 55 58 56 54 49 42 40 44 38 39 40 37 38 39 40 38 42 45 46 48
86 99 102 120 122 119 119 113 95 92 94 93 80 73 72 64 58 61 58 61 61 57 52 47 45 45 51 41 45 43 46 50 52 52 53 50 49 51
74 91 101 109 123 123 120 118 103 98 91 81 79 77 77 71 69 68 64 64 61 64 60 59 52 48 57 55 48 50 49 53 54 58 62 55 56 54
62 79 97 106 114 120 122 121 110 107 94 82 82 81 78 76 76 75 73 68 66 68 62 62 58 52 58 62 55 52 49 51 59 60 64 63 64 56
52 66 85 102 112 118 126 123 121 112 106 96 100 87 82 82 81 82 76 70 72 72 67 62 64 64 64 58 62 57 54 52 56 58 64 66 62 57
49 61 75 94 111 117 125 124 124 125 119 102 104 109 97 91 88 85 80 81 79 77 70 67 66 68 69 63 65 65 59 59 56 58 63 64 61 62
46 56 68 83 101 114 120 129 130 126 122 118 119 108 103 99 97 93 88 89 83 81 75 73 71 72 71 68 68 65 67 61 66 67 71 64 67 67
43 53 62 76 89 101 113 120 126 125 120 119 117 110 106 106 95 95 98 96 91 85 81 79 77 77 75 71 74 76 77 74 75 78 75 70 72 73
43 50 58 68 79 92 105 119 124 125 122 120 119 117 114 111 98 96 97 97 93 91 89 84 84 85 85 81 77 81 84 86 82 80 74 72 76 77
47 49 54 67 76 87 98 108 119 126 123 120 121 117 115 118 114 100 103 101 97 99 99 95 89 88 94 92 91 88 89 89 93 89 82 80 82 87
40 50 55 63 74 83 91 103 112 116 118 124 126 124 122 124 119 116 114 111 107 106 105 102 101 99 94 97 96 96 96 92 94 94 93 91 92 90
48 51 56 62 67 80 88 98 109 117 124 130 126 126 125 122 119 119 119 119 118 118 115 110 110 109 104 108 107 105 102 99 100 103 101 101 96 99
50 53 62 66 74 83 90 97 105 114 125 125 127 125 128 123 125 125 125 129 127 122 120 115 112 113 113 112 113 112 112 110 111 109 110 106 110 103
52 57 62 67 76 82 91 102 109 117 125 126 131 131 129 132 134 130 136 134 126 125 126 124 123 125 122 121 119 122 119 117 116 113 114 111 113 113
52 59 64 69 78 86 95 103 112 118 127 131 134 131 131 130 130 132 134 133 135 129 126 125 125 125 125 128 125 126 124 123 124 119 119 119 119 115
55 57 66 73 79 86 98 107 118 123 130 137 141 138 139 141 142 136 138 138 136 135 132 131 132 130 129 128 129 130 129 127 127 125 125 123 122 122
54 60 63 72 81 89 94 107 116 127 130 141 145 145 148 148 145 145 145 143 142 142 142 141 139 141 139 135 134 132 134 134 132 134 134 134 130 130
59 61 69 71 79 90 98 103 114 123 131 135 141 145 142 145 146 149 148 148 150 151 151 152 150 148 145 144 147 146 141 137 140 139 137 138 137 138

GFSNE_250_spd_159.txt.gz
Wind_Speed
73 71 74 78 81 95 108 112 111 104 102 100 90 84 75 80 88 75 66 63 65 59 52 52 49 44 43 35 26 25 24 25 25 28 33 34 35 33
64 65 66 71 75 80 96 108 110 109 115 114 105 102 92 80 86 85 71 69 68 67 56 54 47 46 49 46 37 35 31 24 24 28 33 34 34 35
57 59 62 66 71 75 84 98 108 116 122 120 114 110 107 87 87 80 73 72 70 70 56 57 54 47 47 50 43 35 30 27 27 28 31 34 36 32
51 52 56 60 66 73 78 89 99 114 122 121 121 117 119 101 93 85 68 75 77 72 67 63 57 54 48 52 55 43 39 34 28 32 35 30 31 32
46 49 53 56 59 66 74 83 94 104 116 123 127 126 118 114 104 96 86 75 74 75 72 68 65 55 52 46 53 46 48 38 35 36 39 30 36 37
46 47 50 54 57 63 69 77 89 99 107 119 124 130 127 117 108 101 95 84 81 74 76 74 71 63 61 51 48 50 52 45 39 40 35 39 39 40
43 44 47 51 54 57 62 68 77 91 100 109 122 128 127 121 114 103 101 96 89 65 74 80 79 73 66 64 53 50 57 49 42 46 44 40 44 42
40 43 47 51 52 55 58 64 69 79 89 101 107 121 126 123 120 111 104 99 99 84 73 80 81 77 77 70 70 61 62 58 54 52 47 45 48 42
40 40 43 44 46 51 56 59 64 69 79 90 102 112 121 125 122 118 112 102 99 99 86 80 83 79 80 74 74 71 62 61 63 56 51 53 52 52
38 39 38 41 42 47 52 53 58 64 69 77 89 105 112 120 123 123 119 109 103 99 94 89 88 84 80 78 75 77 75 70 60 61 58 57 52 52
38 38 35 38 40 46 46 46 51 55 64 70 80 92 104 115 120 122 120 115 111 101 99 97 94 96 92 87 83 82 81 81 73 67 67 63 64 60
35 36 37 38 40 43 42 42 46 49 59 65 72 82 95 106 116 120 119 112 115 109 107 105 96 97 94 96 91 88 89 89 86 81 77 68 73 66
36 37 37 38 40 40 41 40 42 46 53 62 67 78 89 98 108 116 120 119 118 118 112 110 104 103 103 101 98 93 95 95 93 89 86 82 79 76
34 32 32 36 38 38 36 37 38 42 49 57 67 75 84 95 104 113 126 123 122 119 117 115 112 105 105 103 104 98 100 99 97 94 94 91 87 83
36 34 33 34 34 34 36 37 38 40 49 54 62 72 82 93 101 110 129 126 123 118 118 118 117 115 116 115 109 106 104 102 102 101 99 95 93 90
39 40 39 37 36 42 37 35 38 41 47 55 60 70 80 92 101 108 118 129 124 123 121 119 117 118 119 118 115 113 112 107 105 103 101 100 97 98
43 45 46 44 44 43 43 47 42 42 45 51 60 67 78 87 97 105 115 130 132 127 125 128 125 124 123 123 121 116 114 114 111 112 108 107 102 100
43 47 49 49 49 50 49 46 48 48 48 50 56 65 72 84 94 105 114 123 132 134 132 132 131 132 130 131 129 122 122 121 119 117 115 114 110 106
40 45 50 52 54 54 54 54 52 54 55 55 57 62 71 78 91 102 110 121 129 135 136 138 138 137 137 135 133 128 127 128 128 126 124 117 112 111
44 46 49 51 54 58 57 58 59 58 59 61 63 66 70 77 84 96 108 118 129 136 139 141 141 145 143 141 136 135 135 135 133 127 126 120 119 119
48 49 51 54 56 57 59 62 63 62 63 64 68 70 74 78 83 91 99 112 122 131 140 144 146 146 146 145 143 143 142 138 136 134 131 127 124 122
57 57 56 55 55 56 59 62 64 66 68 69 70 73 77 81 84 89 93 100 111 123 136 143 146 150 151 150 148 144 143 143 141 139 135 134 132 128
60 60 61 61 60 58 58 58 61 64 66 70 72 74 77 79 83 88 91 95 98 104 118 134 144 147 152 154 156 155 155 153 153 147 145 143 138 137

GFSNE_250_spd_162.txt.gz
Wind_Speed
83 80 79 82 80 83 88 89 86 94 105 111 106 103 99 89 79 66 64 58 70 71 75 67 60 53 51 47 42 46 34 31 33 32 28 31 33 33
77 74 68 71 67 66 71 75 73 78 92 108 113 109 105 91 83 79 75 70 65 79 79 75 67 60 57 52 50 47 48 42 36 30 30 28 29 33
70 68 62 63 61 59 59 65 69 71 80 98 110 115 112 112 96 91 90 80 81 82 81 72 71 69 65 58 56 53 46 48 45 39 36 34 33 30
63 63 58 58 57 55 55 59 62 69 78 89 102 111 117 112 108 96 99 102 86 88 89 78 74 73 72 65 57 57 55 47 49 47 40 37 38 35
60 59 54 55 52 51 53 57 58 65 74 85 96 106 119 121 116 111 106 112 101 96 95 89 74 76 76 71 63 61 59 56 49 52 49 43 41 40
55 55 51 51 49 48 51 54 58 61 69 78 90 102 114 122 120 122 120 114 116 105 94 88 78 78 76 71 69 64 61 61 61 53 52 53 47 45
50 49 47 46 46 47 48 51 55 61 67 76 86 97 107 114 122 126 126 118 116 113 97 90 83 77 76 76 76 70 67 62 65 59 53 53 54 48
44 43 43 43 44 46 48 49 53 57 62 70 77 89 100 109 116 127 130 130 121 107 96 96 77 71 74 81 80 76 75 71 69 65 58 53 57 51
38 40 40 41 44 46 47 50 52 54 58 64 74 80 93 101 112 119 130 130 128 120 100 101 88 78 62 65 83 79 80 77 74 74 73 58 56 59
35 38 38 39 43 46 50 49 50 54 57 60 65 72 83 95 106 112 120 131 133 125 117 108 99 91 82 72 77 82 86 87 86 81 78 77 64 62
34 36 38 41 42 45 48 47 49 53 55 57 60 67 76 85 95 107 111 121 128 128 124 119 107 100 98 94 92 93 90 90 93 94 89 85 79 67
32 35 40 42 43 44 44 43 45 50 53 53 54 62 69 79 86 95 106 107 119 126 127 131 120 114 112 110 102 96 96 98 100 94 93 89 82 81
33 36 39 42 44 45 44 44 44 47 48 47 49 56 60 69 78 84 94 104 106 119 128 129 130 126 125 120 113 107 96 95 95 94 89 90 89 87
34 38 41 44 44 45 44 45 46 48 48 45 44 49 55 59 68 76 87 93 102 109 122 132 134 131 129 127 123 119 120 106 99 100 96 90 91 88
36 39 42 46 47 46 46 49 50 52 50 47 44 45 50 56 63 70 80 86 94 104 111 124 132 136 136 131 129 127 126 125 120 107 103 102 99 98
34 38 43 45 47 49 50 48 47 52 52 50 46 44 48 54 60 67 75 83 91 100 109 120 130 137 141 141 132 130 128 124 125 116 111 110 108 105
34 38 42 47 51 52 55 55 53 52 54 52 52 49 49 52 58 65 71 79 87 94 104 115 127 134 140 142 135 133 133 132 132 118 120 119 118 115
39 40 43 46 50 54 58 59 61 60 58 59 58 56 54 54 57 63 70 76 83 92 100 110 120 131 138 141 140 141 139 140 136 128 128 128 124 123
41 44 47 49 51 53 56 61 64 64 65 64 64 63 62 62 61 64 69 75 80 89 94 105 115 129 136 142 147 149 149 148 146 142 137 133 133 129
48 48 48 51 53 56 58 59 61 63 66 66 66 66 66 67 67 67 71 76 80 86 93 100 111 121 132 141 150 155 154 153 151 147 144 141 137 135
48 50 53 56 57 57 58 59 60 61 63 65 67 69 70 70 71 73 73 77 81 86 92 97 103 113 123 130 139 147 153 155 150 149 148 141 139 142
57 56 56 57 57 58 59 59 60 62 63 63 65 67 69 72 73 74 75 78 80 85 90 95 101 107 116 124 133 140 147 154 155 150 147 146 143 141
61 61 62 62 61 59 58 58 59 61 62 64 65 65 67 70 74 76 76 77 80 84 88 93 97 103 111 118 127 135 141 152 155 154 151 149 148 147

GFSNE_250_spd_165.txt.gz
Wind_Speed
93 85 82 83 85 86 89 91 93 95 99 103 106 102 103 105 102 94 90 80 71 66 57 61 64 64 64 60 58 55 53 38 42 33 34 37 33 35
83 79 77 78 79 81 82 80 83 85 90 98 100 100 103 104 109 103 94 93 85 81 70 61 70 61 63 68 64 60 57 55 48 41 43 40 39 40
79 77 76 75 75 74 72 70 69 67 75 84 88 91 93 102 108 108 104 98 103 94 84 77 68 64 58 74 72 71 65 63 57 54 44 44 47 43
76 74 72 70 69 67 63 59 59 58 63 73 77 78 79 93 101 106 111 106 102 106 96 88 81 77 75 75 73 75 72 70 65 59 55 49 46 48
66 64 62 60 59 57 52 55 50 50 57 65 70 71 70 83 96 104 116 115 103 108 104 97 80 79 82 79 80 80 76 74 72 65 60 57 48 50
57 54 53 53 53 49 47 49 48 48 52 57 65 65 68 76 89 102 113 119 118 109 104 100 92 86 85 81 85 79 82 81 78 74 68 65 61 54
48 46 46 46 45 44 46 45 47 46 49 52 57 61 65 72 84 96 107 123 124 116 111 115 110 101 106 102 91 86 84 84 82 81 74 70 70 64
39 38 39 40 40 40 41 41 42 44 46 48 52 57 62 69 79 90 103 115 125 124 123 114 120 116 107 103 94 91 88 87 84 84 81 78 73 75
32 32 34 33 35 36 37 38 41 42 44 47 51 55 59 64 74 87 100 110 125 127 126 124 125 125 117 109 101 95 96 94 91 88 85 84 79 74
29 29 30 30 32 34 36 38 41 43 45 47 50 54 59 64 69 80 91 102 112 130 130 129 129 127 121 118 114 106 105 102 98 96 91 88 83 76
28 29 30 32 32 34 37 39 42 45 46 47 49 52 58 65 68 76 87 96 106 120 137 135 134 132 124 120 118 112 106 103 100 101 99 95 91 85
27 29 30 33 35 36 39 42 45 47 49 49 49 51 55 61 67 70 79 92 101 113 128 143 144 138 134 123 120 114 110 107 103 98 97 97 92 87
29 29 30 33 37 39 42 46 48 49 51 50 53 55 56 58 63 67 75 85 97 106 113 132 146 146 145 138 132 124 112 113 105 103 104 104 102 98
29 32 33 34 36 41 44 48 51 54 54 52 53 54 56 60 62 66 72 78 85 96 105 111 128 145 147 143 139 132 118 116 115 106 101 102 104 105
31 31 34 37 40 43 48 51 55 56 57 57 56 55 56 59 59 61 65 71 76 83 93 100 108 123 143 146 145 139 125 118 116 114 106 100 100 103
33 34 35 36 40 45 49 53 56 59 60 60 60 61 62 62 61 62 63 65 69 74 79 90 98 108 120 136 148 145 139 136 126 129 126 115 112 106
34 36 38 40 42 43 47 51 56 60 63 65 67 67 67 65 65 65 65 64 66 70 73 82 90 98 108 122 135 149 149 144 142 140 136 131 127 124
37 39 40 43 45 47 50 52 55 58 61 67 70 72 72 71 70 68 67 66 66 69 72 77 84 92 99 111 123 136 151 154 153 148 146 138 136 130
40 41 42 44 46 49 52 55 59 61 63 65 66 68 72 72 72 69 69 68 69 71 74 77 82 87 94 101 113 123 135 153 159 156 152 150 144 134
44 46 48 50 51 53 55 57 59 62 64 67 68 68 68 69 71 72 72 71 72 71 76 79 82 87 90 94 103 114 126 137 151 158 156 157 156 150
51 51 52 54 55 56 58 60 61 63 63 64 65 66 68 69 70 71 73 73 73 73 75 80 83 86 91 95 99 105 116 131 138 149 155 159 159 157
58 58 59 60 60 61 61 61 61 61 62 63 64 63 65 67 69 70 71 73 75 75 75 76 80 86 89 93 99 103 108 116 131 138 151 157 162 165
61 61 62 63 64 63 63 62 61 60 59 59 59 61 62 64 66 67 69 71 73 76 78 78 79 80 86 91 94 101 105 109 114 129 140 147 158 163

GFSNE_250_spd_168.txt.gz
Wind_Speed
96 93 91 90 90 90 89 89 91 88 91 95 98 111 113 110 103 100 101 106 102 95 87 88 81 71 64 59 63 66 62 56 54 52 50 47 42 37
93 94 94 91 88 87 86 84 81 83 82 89 92 98 105 106 107 100 96 99 104 103 93 87 81 74 71 68 72 66 66 63 60 57 56 49 44 40
89 87 84 81 77 76 75 75 74 72 79 85 86 93 99 99 98 97 94 97 100 109 99 94 85 85 82 79 65 57 70 71 68 64 63 59 52 44
75 74 73 72 70 69 68 69 68 65 66 73 78 84 91 95 86 89 94 96 103 105 106 99 95 89 83 82 81 86 80 71 77 69 65 62 61 55
66 65 64 62 61 61 62 62 60 59 60 65 71 77 84 85 79 85 90 92 100 102 108 112 108 101 90 94 86 84 80 82 82 75 72 69 67 64
58 57 55 53 52 52 51 51 53 53 53 59 66 70 73 72 72 79 84 89 96 102 109 119 110 110 103 95 90 92 84 85 80 77 76 73 74 73
49 48 46 45 44 43 42 42 45 47 50 53 58 60 63 65 64 68 75 79 90 101 111 118 117 119 118 106 97 91 95 92 91 84 78 76 77 74
37 35 35 35 35 35 35 37 38 39 44 48 51 55 56 57 57 62 67 72 81 96 105 112 127 127 120 117 108 97 86 89 92 93 87 85 82 80
27 25 26 27 28 29 30 32 33 35 39 43 47 51 53 53 52 58 64 70 76 89 103 114 124 129 127 120 117 113 99 95 93 96 91 88 90 89
25 24 23 24 25 26 28 29 31 32 36 41 45 49 51 52 51 53 61 68 74 84 99 108 115 128 132 129 127 122 112 111 101 98 97 92 91 96
24 24 24 24 24 25 27 30 32 34 36 38 43 47 49 51 52 53 57 67 75 82 93 107 115 122 132 134 131 133 123 120 114 105 104 97 99 99
23 24 25 26 27 26 27 30 33 34 37 39 43 46 49 50 52 53 55 62 72 80 88 99 112 121 132 141 137 132 129 125 119 114 116 114 108 106
26 25 25 26 27 29 30 32 34 37 41 43 46 48 50 52 53 55 57 60 67 76 84 93 104 115 125 135 139 137 136 132 126 125 127 124 119 113
27 28 27 27 28 31 33 34 37 41 44 47 49 51 52 54 56 57 59 62 63 72 79 89 98 108 119 128 143 142 141 143 140 136 133 131 125 116
33 32 32 32 33 33 34 37 40 42 46 49 53 55 56 57 59 61 64 66 67 68 76 84 91 101 110 123 133 149 148 147 149 142 139 130 128 123
35 36 37 38 38 39 39 41 42 44 48 52 56 59 61 62 64 64 66 70 70 71 74 80 88 95 102 113 126 136 153 152 152 147 145 136 136 133
35 36 36 38 39 41 44 47 48 49 51 53 56 60 63 65 67 68 69 72 73 75 75 79 84 90 98 103 111 122 133 153 156 153 149 144 138 132
38 38 39 40 40 43 44 45 48 51 55 58 60 62 64 65 67 68 70 72 73 75 76 78 82 85 90 96 101 107 118 131 150 159 155 152 148 143
45 45 45 45 45 46 48 50 52 54 57 60 62 65 68 69 70 71 69 69 71 71 73 74 77 80 85 87 90 99 104 114 129 146 160 160 158 148
48 49 50 51 51 51 52 54 55 57 59 62 65 67 69 70 70 70 70 71 71 72 72 73 75 77 79 84 88 88 96 102 110 125 137 162 160 162
52 52 53 54 54 55 57 58 60 61 63 63 64 65 67 68 68 69 68 68 70 72 73 73 74 77 78 81 84 88 87 97 101 109 119 134 154 165
58 58 59 59 60 60 60 61 62 63 64 64 63 61 61 62 63 65 66 69 69 70 71 73 73 75 76 79 82 85 87 88 96 100 107 118 130 143
62 62 63 63 64 64 64 64 64 64 64 62 61 61 59 59 60 62 64 66 68 70 71 71 72 73 75 76 80 84 87 88 89 96 100 105 117 126

GFSNE_250_spd_171.txt.gz
Wind_Speed
91 93 93 92 90 89 88 87 85 86 92 97 97 102 98 96 95 97 102 109 108 105 106 107 104 99 89 85 83 66 56 64 76 65 57 52 52 48
87 89 90 89 87 86 86 86 85 86 89 93 95 95 97 99 99 100 102 103 106 106 104 107 107 105 99 93 90 89 82 75 78 68 65 61 54 53
78 80 80 81 82 82 84 85 85 87 91 94 96 97 101 104 102 102 102 102 104 105 105 102 107 110 108 102 97 95 87 84 74 65 69 64 62 60
68 69 69 68 69 70 70 71 73 75 79 85 89 92 96 101 103 97 97 99 100 101 102 102 102 105 113 110 103 102 99 94 85 75 69 69 65 64
58 59 59 59 60 61 62 63 65 68 71 76 83 83 86 89 90 92 87 88 93 94 97 96 104 104 105 112 109 106 106 101 90 83 79 77 78 73
52 51 51 51 50 51 50 52 54 57 59 64 73 75 77 79 81 82 82 79 83 87 91 95 98 102 103 113 114 111 107 104 99 91 83 81 80 83
41 41 41 42 42 42 42 42 44 46 49 54 60 63 64 68 72 77 77 76 72 76 85 93 97 97 103 106 117 113 109 109 106 99 95 89 81 74
36 34 32 31 31 30 31 32 34 36 39 43 48 52 55 58 63 68 71 71 68 72 80 88 95 97 100 104 108 119 117 113 112 100 97 99 97 92
33 33 30 26 24 23 22 23 25 28 32 36 41 45 47 49 54 59 61 61 64 70 75 78 85 92 97 102 107 119 122 116 112 107 105 107 105 102
29 28 27 25 22 21 22 22 23 24 28 32 36 40 43 45 48 53 56 57 61 66 70 72 77 83 91 98 109 120 129 126 117 113 112 110 108 104
24 25 26 26 25 23 22 23 24 24 27 30 34 37 41 45 47 49 51 55 58 63 66 69 72 78 85 99 105 114 129 127 125 121 118 118 121 116
30 28 25 24 25 26 26 25 25 28 29 30 33 37 41 43 46 48 49 51 54 58 61 66 69 74 81 92 102 109 117 133 134 127 116 117 117 115
29 30 30 29 28 27 27 28 29 29 31 33 35 39 43 46 47 49 51 52 53 57 61 65 69 73 79 87 98 109 115 128 137 132 127 120 120 114
30 30 30 30 31 31 30 30 31 33 34 36 38 40 44 48 51 54 56 56 56 58 60 63 68 72 77 85 90 101 112 122 130 138 134 128 126 120
33 34 34 35 35 35 35 35 35 36 37 39 42 44 46 50 54 58 60 62 63 63 63 64 68 73 78 83 91 98 108 119 128 137 142 142 134 126
37 37 37 37 38 39 40 40 41 42 42 43 45 47 50 52 55 59 63 65 67 69 70 69 70 73 77 83 89 96 102 109 118 128 144 149 148 141
40 41 42 42 43 44 44 45 45 47 48 49 50 50 53 55 58 61 64 66 68 70 73 75 75 75 78 82 88 94 101 106 112 122 136 151 153 152
45 46 46 46 47 49 50 50 51 53 54 55 57 57 59 60 60 64 67 68 70 71 73 76 79 80 80 82 86 92 98 104 109 115 126 138 152 155
50 52 52 52 52 53 53 54 54 56 57 59 61 63 65 66 68 69 67 68 71 73 73 74 77 81 84 85 85 90 95 99 105 112 116 123 136 147
56 57 58 59 58 58 58 58 59 60 60 61 63 65 68 70 70 71 72 73 73 71 69 71 73 76 78 82 85 85 92 97 99 103 107 115 122 133
61 63 64 63 62 61 61 62 62 62 63 63 64 65 67 69 70 71 72 72 73 73 73 69 68 72 76 79 81 85 84 93 99 100 103 104 110 122
68 70 68 67 67 66 64 63 63 64 64 64 64 65 65 64 65 66 66 67 68 69 72 72 69 69 71 76 79 82 85 85 93 101 102 100 105 109
75 75 73 72 71 69 67 66 66 65 64 64 64 63 62 62 61 61 61 62 63 65 67 70 70 70 69 70 75 80 82 84 85 91 99 99 99 102

GFSNE_250_spd_177.txt.gz
Wind_Speed
55 56 58 61 66 70 74 77 80 85 90 92 94 95 98 98 99 99 102 99 97 94 91 89 89 98 104 103 103 101 97 94 74 72 74 64 61 59
48 48 49 52 56 61 68 72 76 81 84 88 91 92 94 96 97 99 101 101 102 101 99 95 93 95 102 109 107 107 105 102 84 80 78 70 65 61
41 42 42 44 47 52 56 62 69 75 80 82 83 87 89 91 92 93 96 98 100 102 103 102 100 98 100 107 114 112 113 108 94 92 85 82 81 75
36 36 37 39 42 45 49 53 58 63 67 70 75 81 84 86 88 90 91 90 91 97 101 103 104 101 102 105 110 116 117 117 108 100 99 94 84 85
33 33 33 35 37 40 44 47 51 54 59 61 64 69 74 76 79 83 85 89 90 88 92 98 102 105 108 108 109 115 118 122 118 112 109 103 97 92
34 34 34 34 34 35 37 39 41 45 50 54 57 60 65 67 69 71 74 77 84 88 89 91 96 101 106 111 111 113 118 124 125 121 116 114 108 104
31 31 33 33 33 34 34 36 37 39 41 45 46 48 54 59 63 64 66 70 73 79 85 89 90 95 102 107 112 114 117 123 130 132 128 126 126 122
28 28 27 28 29 29 29 31 33 35 37 38 40 41 42 46 54 58 61 62 66 71 75 82 85 90 96 102 108 112 116 119 124 135 137 136 135 135
24 23 23 23 24 25 26 27 28 30 33 35 36 37 38 38 42 47 51 57 59 63 69 73 78 82 88 98 101 105 111 117 123 127 136 142 141 140
21 21 23 24 25 25 26 26 27 29 31 33 35 36 36 37 36 37 42 47 50 54 60 65 69 76 80 83 95 102 104 109 114 121 125 134 143 147
22 23 23 24 24 24 26 27 28 29 29 31 34 36 37 39 38 38 38 41 45 47 52 58 62 68 73 78 83 90 100 106 109 114 118 125 133 141
22 24 25 25 27 28 29 29 29 30 31 33 36 37 38 39 40 41 41 41 43 46 50 52 57 61 66 72 77 83 89 96 104 110 114 117 122 128
25 26 28 29 30 30 29 28 28 29 30 31 33 35 38 42 43 43 44 45 44 46 50 53 55 58 62 67 72 78 83 88 94 99 105 111 116 120
28 29 32 34 36 36 36 34 33 33 34 34 35 36 37 40 43 46 48 48 48 49 50 53 56 58 60 64 69 75 80 85 89 94 99 103 108 113
31 33 35 37 38 39 40 39 39 39 40 41 41 42 44 44 45 46 49 51 53 53 53 55 57 60 64 66 68 74 79 83 86 91 95 99 101 103
36 38 40 42 43 43 44 43 44 45 46 47 48 49 49 50 51 51 52 54 55 57 59 59 60 63 65 69 72 74 77 81 85 88 91 95 98 101
43 44 46 47 49 50 51 50 49 49 51 53 54 54 54 55 57 57 57 57 58 60 62 65 65 65 67 70 73 76 79 82 84 87 90 91 92 96
49 51 53 55 55 56 57 56 54 54 55 56 58 59 60 61 61 61 62 62 62 63 65 66 68 70 70 71 73 76 79 80 83 85 86 90 90 92
55 57 59 62 62 63 64 62 62 61 60 60 62 63 64 64 64 64 64 64 64 64 65 67 69 71 73 73 74 72 78 80 84 85 85 87 90 88
61 63 65 67 68 69 70 68 67 67 66 66 67 68 68 67 66 65 64 65 64 65 65 65 68 70 71 73 75 75 74 79 80 85 86 86 88 90
66 69 71 72 73 74 74 73 72 71 69 70 71 69 67 67 66 64 63 63 64 65 66 66 65 67 70 72 74 76 76 74 81 81 83 84 87 90
70 73 74 77 79 79 78 77 75 74 73 71 68 67 64 63 62 61 61 60 60 60 61 63 63 64 65 69 72 74 75 75 74 81 83 81 84 88
75 77 79 81 82 81 80 79 78 77 74 70 67 63 62 61 60 58 58 58 58 58 58 60 62 63 63 65 67 71 72 74 75 73 77 82 86 86